Location: Ebersheim
(48.3033°N, 7.4991°E)
Time: 07:51:11
(UTC+00:00)

NOAA 11 - Pass Details

Date: 27 February 2020
Orbit: 833 x 849 km, 98.4° (Epoch: 30 March)

Event Time Altitude Azimuth Distance (km) Brightness Sun altitude
Rises 18:01:11 0° 167° (SSE) 3,378 7.2 -9.3°
Reaches altitude 10° 18:03:33 10° 169° (S) 2,445 6.5 -9.7°
Maximum altitude 18:08:58 79° 256° (WSW) 856 4.4 -10.6°
Drops below altitude 10° 18:14:26 10° 344° (NNW) 2,456 6.8 -11.5°
Sets 18:16:48 0° 345° (NNW) 3,394 7.6 -11.9°
